ROMMA est une association bénévole à but non lucratif. Votre soutien est indispensable : ADHERER à ROMMA ou FAIRE un DON

Le Versoud - (38, Isère)

Vallée du Grésivaudan (220 m)   Longitude: 05° 51' 44" E   Latitude: 45° 13' 06" N Station partenaire n°6
 

Détail journalier du     <<     >>

Température Humidité Pression Vent Dir Rafale Dir. rafale Ensol.
Heure (°C) (%) (hPa) (km/h) (km/h) (min)
01:00 17.490101602SO0
02:00 16.992101600---0
03:00 16.391101500---0
04:00 15.791101500---0
05:00 15.492101600---0
06:00 15.192101600---0
07:00 15.393101600---5
08:00 18.682101600---45
09:00 20.277101600---60
10:00 22.167101500---60
11:00 23.862101400---60
12:00 25.159101400---40
13:00 26.956101300---10
14:00 27.950101300---20
15:00 29.447101200---30
16:00 31.337101105ONO35
17:00 30.344101108SSO30
18:00 28.252101100---0
19:00 27.457101100---10
20:00 29.153101100---60
21:00 25.457101100---25
22:00 23.172101200---0
23:00 21.674101200---0
minuit 20.281101200---0

Graphique du 18-06-2019

 

Serveur OMMA